[[{"header":{"parameterUnit":"m.s-1","parameterCategory":1,"la1":30.2991,"la2":30.254,"lo1":-89.0895,"lo2":-89.0444,"dy":0.0017,"dx":0.0017,"nx":28,"ny":28,"refTime":"2024-03-14T09:00:00:Z","depth":0,"parameterNumber":2,"parameterNumberName":"U-component_of_WINDS"},"data":[0,0,0,0,0,0,0,0,0,0,0,0,0,0,0,0,0,0,0,0,0,0,0,0,0,0,0,0,0,0,0,0,0,0,0,0,0,0,0,0,0,0,0,0,0,0,0,0,0,0,0,0,0,0,0,0,0,0,-2.1415,-2.1416,0,-2.1421,-2.1421,-2.1422,-2.1404,-2.1403,-2.1403,-2.1402,-2.1408,-2.1408,-2.1409,0,0,0,0,0,0,0,0,0,0,0,0,0,-2.1389,-2.1389,-2.1415,-2.1416,-2.1416,-2.1421,-2.1421,-2.1422,-2.1404,-2.1403,-2.1402,-2.1402,-2.1408,-2.1408,-2.1409,0,0,0,0,0,0,0,0,0,0,0,0,0,-2.1398,-2.1389,-2.1415,-2.1407,-2.1407,-2.1421,-2.1421,-2.1422,-2.1404,-2.1403,-2.1402,-2.1401,-2.1407,-2.1408,-2.1409,-2.1432,0,0,-2.1412,-2.1413,0,0,0,0,0,0,0,0,-2.1397,-2.1399,-2.1409,-2.1408,-2.1407,-2.1411,-2.1414,-2.1425,-2.1404,-2.1405,-2.1402,-2.1401,-2.1409,-2.141,-2.1413,-2.1432,-2.1432,-2.1412,-2.1413,-2.1413,-2.1414,0,0,0,0,0,0,0,-2.1397,-2.1399,-2.1418,-2.1409,-2.1408,-2.1404,-2.1404,-2.1416,-2.1412,-2.1405,-2.1404,-2.1405,-2.1409,-2.1412,-2.1413,-2.1432,-2.1412,-2.1413,-2.1414,-2.1414,-2.147,-2.147,0,0,0,0,0,0,-2.1397,-2.1398,-2.1418,-2.1418,-2.14,-2.1405,-2.1405,-2.1411,-2.1412,-2.1411,-2.1405,-2.1404,-2.1411,-2.1412,-2.1413,-2.1439,-2.1413,-2.1414,-2.1415,-2.1469,-2.147,-2.1471,0,0,0,0,0,0,-2.1397,-2.1399,-2.1417,-2.1408,-2.141,-2.1406,-2.1412,-2.1411,-2.1414,-2.1412,-2.1411,-2.1409,-2.141,-2.1412,-2.1427,-2.1439,-2.1415,-2.1416,-2.1468,-2.1469,-2.147,-2.1491,0,0,0,0,0,0,-2.1396,-2.1399,-2.1408,-2.1408,-2.141,-2.1431,-2.1413,-2.1412,-2.1416,-2.1414,-2.1415,-2.1415,-2.141,-2.1426,-2.1428,-2.144,-2.1416,-2.1467,-2.1468,-2.147,-2.1489,-2.1493,-2.1496,0,0,0,0,0,-2.1395,-2.1413,-2.1408,-2.1411,-2.1421,-2.1432,-2.1433,-2.1427,-2.1417,-2.1425,-2.1424,-2.1415,-2.1438,-2.1428,-2.143,-2.1442,-2.1466,-2.1468,-2.147,-2.1487,-2.1492,-2.1496,0,0,0,0,0,0,-2.1414,-2.1413,-2.1407,-2.1426,-2.1429,-2.1429,-2.1439,-2.1432,-2.1438,-2.1436,-2.1428,-2.1429,-2.1445,-2.1445,-2.1434,-2.1464,-2.145,-2.1453,-2.1463,-2.1467,-2.147,-2.1469,-2.1417,0,0,0,0,0,-2.142,-2.1429,-2.1428,-2.1445,-2.1447,-2.1443,-2.1447,-2.1443,-2.1445,-2.1447,-2.1446,-2.1449,-2.1457,-2.1462,-2.1469,-2.149,-2.1489,-2.1499,-2.1503,-2.1505,-2.1507,-2.1517,-2.1521,-2.1477,-2.1477,-2.1477,0,0,-2.1433,-2.1434,-2.144,-2.1449,-2.145,-2.146,-2.1444,-2.1455,-2.1461,-2.1448,-2.1462,-2.1462,-2.1465,-2.1483,-2.1491,-2.1484,-2.152,-2.1508,-2.151,-2.151,-2.152,-2.1524,-2.1528,-2.1479,-2.1478,-2.1478,0,0,-2.1461,-2.1463,-2.1477,-2.1479,-2.1482,-2.148,-2.1483,-2.1484,-2.1483,-2.1498,-2.1488,-2.1496,-2.151,-2.1512,-2.1515,-2.1545,-2.1536,-2.1548,-2.1565,-2.1575,-2.1578,-2.1581,-2.1591,-2.1594,-2.155,-2.155,-2.155,0,-2.1477,-2.1491,-2.1485,-2.1496,-2.15,-2.1489,-2.1502,-2.1505,-2.151,-2.1513,-2.1506,-2.1522,-2.1524,-2.1541,-2.1549,-2.1552,-2.1555,-2.1547,-2.1578,-2.1581,-2.1584,-2.1593,-2.1597,-2.1551,-2.1551,-2.1551,-2.1551,0,-2.1509,-2.1519,-2.153,-2.1535,-2.154,-2.1553,-2.1549,-2.1555,-2.155,-2.1548,-2.1563,-2.1564,-2.1571,-2.1575,-2.1571,-2.1592,-2.1588,-2.1579,-2.1565,-2.1589,-2.1598,-2.1601,-2.1553,-2.1553,-2.1552,-2.1552,0,0,-2.1548,-2.155,-2.1554,-2.1556,-2.1559,-2.1567,-2.1579,-2.1586,-2.1591,-2.1595,-2.1604,-2.1617,-2.1609,-2.1612,-2.1608,-2.1617,-2.164,-2.1608,-2.1607,-2.1612,-2.1663,-2.1668,-2.1672,-2.1635,-2.1635,-2.1636,-2.1662,0,-2.1574,-2.1595,-2.159,-2.161,-2.1619,-2.1609,-2.1619,-2.1622,-2.1621,-2.1629,-2.1628,-2.1636,-2.1626,-2.1628,-2.1636,-2.1635,-2.1649,-2.1633,-2.1643,-2.1643,-2.164,-2.1676,-2.1682,-2.1706,-2.1665,-2.1666,-2.1666,0,-2.1608,-2.1613,-2.1634,-2.1636,-2.1639,-2.1649,-2.1654,-2.1662,-2.1665,-2.1664,-2.1668,-2.1662,-2.1674,-2.1661,-2.1677,-2.1666,-2.167,-2.167,-2.1671,-2.167,-2.1655,-2.1675,-2.1714,-2.1717,-2.1672,-2.1671,-2.1671,0,-2.1632,-2.1645,-2.1659,-2.1661,-2.1664,-2.1671,-2.1672,-2.1674,-2.1679,-2.1684,-2.1687,-2.1694,-2.1697,-2.1703,-2.1699,-2.169,-2.1715,-2.1702,-2.1714,-2.1714,-2.1718,-2.1717,-2.1756,-2.1723,-2.1723,-2.1723,-2.1723,0,-2.1661,-2.1674,-2.167,-2.1678,-2.1692,-2.1687,-2.1701,-2.1702,-2.1704,-2.1712,-2.1705,-2.1713,-2.1708,-2.1715,-2.1713,-2.1726,-2.1728,-2.1727,-2.1725,-2.1726,-2.1726,-2.1727,-2.1725,-2.1724,-2.1724,-2.1724,-2.1723,0,-2.169,-2.1688,-2.1702,-2.1704,-2.1704,-2.1715,-2.1716,-2.1723,-2.1722,-2.1733,-2.1735,-2.1733,-2.1742,-2.1739,-2.1748,-2.1746,-2.1762,-2.176,-2.1761,-2.176,-2.1771,-2.177,-2.1811,-2.1816,-2.1781,-2.1781,-2.1781,0,-2.1708,-2.1718,-2.172,-2.1725,-2.1727,-2.1735,-2.174,-2.1736,-2.1741,-2.1745,-2.1753,-2.176,-2.1766,-2.178,-2.178,-2.1787,-2.1783,-2.1797,-2.1784,-2.1785,-2.1782,-2.1781,-2.1781,-2.1799,-2.18,-2.18,-2.18,0,-2.174,-2.1738,-2.1745,-2.1752,-2.1757,-2.1762,-2.1767,-2.1771,-2.1767,-2.1773,-2.1782,-2.1787,-2.1796,-2.1804,-2.181,-2.1811,-2.1805,-2.1805,-2.1808,-2.1808,-2.1808,-2.1807,-2.1766,-2.1803,-2.1803,-2.1803,-2.1803,-2.1803,-2.1763,-2.1771,-2.1774,-2.1781,-2.1784,-2.1789,-2.1796,-2.1796,-2.1803,-2.181,-2.1808,-2.1817,-2.182,-2.1828,-2.1831,-2.1838,-2.1833,-2.1837,-2.1838,-2.1839,-2.1839,-2.1808,-2.1839,-2.1839,-2.1839,-2.1839,-2.1839,0,-2.1793,-2.1795,-2.1802,-2.1808,-2.1814,-2.1809,-2.1813,-2.1819,-2.1827,-2.1831,-2.1837,-2.1847,-2.1854,-2.1855,-2.1862,-2.1868,-2.1865,-2.1869,-2.1868,-2.1868,-2.1845,-2.1841,-2.1871,-2.1871,-2.1871,-2.1871,-2.1871,-2.1871,-2.1809,-2.1822,-2.1821,-2.1835,-2.1837,-2.1846,-2.1849,-2.1853,-2.1856,-2.1867,-2.1873,-2.1873,-2.1876,-2.1883,-2.189,-2.189,-2.1892,-2.1897,-2.1896,-2.1873,-2.187,-2.1867,-2.1863,-2.1898,-2.1898,-2.1919,-2.1919,-2.1919]},{"header":{"parameterUnit":"m.s-1","parameterCategory":1,"la1":30.2991,"la2":30.254,"lo1":-89.0895,"lo2":-89.0444,"dy":0.0017,"dx":0.0017,"nx":28,"ny":28,"refTime":"2024-03-14T09:00:00:Z","depth":0,"parameterNumber":3,"parameterNumberName":"V-component_of_WINDS"},"data":[0,0,0,0,0,0,0,0,0,0,0,0,0,0,0,0,0,0,0,0,0,0,0,0,0,0,0,0,0,0,0,0,0,0,0,0,0,0,0,0,0,0,0,0,0,0,0,0,0,0,0,0,0,0,0,0,0,0,3.1053,3.1054,0,3.1099,3.1099,3.11,3.1084,3.1083,3.1082,3.1081,3.1127,3.1129,3.1131,0,0,0,0,0,0,0,0,0,0,0,0,0,3.0954,3.0956,3.1053,3.1054,3.1054,3.1099,3.1099,3.11,3.1084,3.1083,3.1082,3.1081,3.1126,3.1129,3.1131,0,0,0,0,0,0,0,0,0,0,0,0,0,3.0998,3.0957,3.1053,3.1052,3.1052,3.1099,3.1099,3.11,3.1085,3.1083,3.1082,3.108,3.1126,3.1129,3.1132,3.1182,0,0,3.1142,3.1143,0,0,0,0,0,0,0,0,3.0996,3.1002,3.1052,3.1052,3.1053,3.1084,3.1081,3.1128,3.1085,3.1072,3.1081,3.1079,3.1114,3.1118,3.113,3.1184,3.1186,3.1142,3.1144,3.1145,3.1146,0,0,0,0,0,0,0,3.0993,3.1,3.1071,3.1052,3.1053,3.105,3.1054,3.109,3.1101,3.1073,3.1072,3.1078,3.1114,3.1127,3.1131,3.1187,3.1142,3.1145,3.1147,3.1148,3.1288,3.1289,0,0,0,0,0,0,3.0989,3.0997,3.107,3.1073,3.102,3.1053,3.1058,3.1076,3.1101,3.1103,3.1079,3.1077,3.1122,3.1127,3.1132,3.1195,3.1145,3.1148,3.115,3.1286,3.1288,3.129,0,0,0,0,0,0,3.0987,3.0996,3.1068,3.1035,3.1044,3.1056,3.1076,3.1077,3.109,3.1105,3.1107,3.109,3.1121,3.1128,3.1171,3.1197,3.115,3.1153,3.1284,3.1286,3.1289,3.132,0,0,0,0,0,0,3.0984,3.0995,3.1014,3.1035,3.1046,3.1105,3.1078,3.1079,3.1096,3.1094,3.1116,3.1118,3.112,3.1166,3.1174,3.12,3.1155,3.1281,3.1285,3.1288,3.1317,3.1323,3.1329,0,0,0,0,0,3.0981,3.102,3.1015,3.1024,3.1069,3.1107,3.1112,3.1114,3.1098,3.1118,3.1127,3.1117,3.1192,3.117,3.1179,3.1207,3.128,3.1284,3.1288,3.1314,3.1322,3.1329,0,0,0,0,0,0,3.1,3.1022,3.1017,3.1064,3.1084,3.1104,3.1128,3.1122,3.1147,3.1144,3.1145,3.115,3.1195,3.1204,3.118,3.1258,3.1234,3.124,3.125,3.1258,3.1264,3.1262,3.1158,0,0,0,0,0,3.101,3.1038,3.1056,3.1096,3.1106,3.1116,3.1132,3.1132,3.1152,3.116,3.1173,3.1193,3.1222,3.124,3.1266,3.1317,3.1324,3.1341,3.1347,3.1352,3.1358,3.1389,3.1398,3.1303,3.1303,3.1303,0,0,3.103,3.1046,3.1064,3.11,3.1116,3.1146,3.1123,3.1155,3.1178,3.1165,3.1207,3.1217,3.124,3.1288,3.131,3.1298,3.1386,3.1357,3.1361,3.1364,3.1394,3.1403,3.1411,3.1306,3.1305,3.1305,0,0,3.1084,3.1097,3.1134,3.115,3.1174,3.118,3.1189,3.121,3.1217,3.1259,3.1252,3.1279,3.1326,3.1344,3.1359,3.1422,3.1415,3.143,3.1463,3.1493,3.1501,3.1507,3.1533,3.1541,3.1435,3.1436,3.1436,0,3.1106,3.1152,3.1153,3.1187,3.1205,3.1195,3.1233,3.1248,3.1279,3.1292,3.1278,3.134,3.1354,3.1408,3.1424,3.1435,3.1447,3.1428,3.15,3.1506,3.1513,3.1537,3.1546,3.1438,3.1437,3.1437,3.1437,0,3.118,3.1211,3.1238,3.127,3.129,3.1325,3.1333,3.1353,3.1352,3.136,3.1405,3.1422,3.1453,3.1466,3.1464,3.152,3.1512,3.1499,3.1474,3.1524,3.1546,3.1555,3.144,3.144,3.1439,3.1439,0,0,3.1246,3.128,3.129,3.1306,3.1332,3.1357,3.1393,3.1424,3.1443,3.1465,3.1497,3.1539,3.1528,3.1545,3.1545,3.1571,3.1624,3.1555,3.1556,3.157,3.169,3.1702,3.1712,3.1618,3.162,3.1621,3.1689,0,3.1304,3.1368,3.1371,3.1429,3.146,3.1453,3.1485,3.1505,3.1514,3.1542,3.1551,3.1583,3.1564,3.1575,3.16,3.1612,3.1648,3.1607,3.165,3.1651,3.1647,3.1723,3.1735,3.1798,3.1698,3.1699,3.17,0,3.1379,3.1406,3.1468,3.1493,3.1506,3.1534,3.1565,3.1591,3.1615,3.162,3.164,3.1638,3.1676,3.1649,3.1703,3.1675,3.1693,3.1702,3.1704,3.171,3.168,3.1734,3.1818,3.1829,3.1714,3.1712,3.1711,0,3.1426,3.1476,3.1521,3.1534,3.1563,3.1584,3.1597,3.1619,3.1639,3.1666,3.1679,3.1709,3.1726,3.1751,3.1757,3.1736,3.1812,3.1785,3.1819,3.1819,3.1837,3.1836,3.1927,3.1844,3.1844,3.1843,3.1843,0,3.1491,3.153,3.1542,3.157,3.1614,3.1618,3.1661,3.1673,3.1693,3.1724,3.1718,3.1747,3.1753,3.1783,3.1788,3.1834,3.1841,3.1847,3.1848,3.1849,3.1849,3.1862,3.1859,3.1846,3.1845,3.1845,3.1845,0,3.1551,3.156,3.1609,3.1633,3.164,3.1672,3.1693,3.1721,3.1729,3.1768,3.1778,3.1792,3.1828,3.1836,3.1878,3.1881,3.1937,3.1932,3.1929,3.193,3.1965,3.1962,3.207,3.2086,3.1989,3.199,3.1991,0,3.1593,3.1623,3.1652,3.1672,3.1687,3.1719,3.174,3.1745,3.1767,3.1798,3.1822,3.1857,3.1886,3.1944,3.1958,3.1991,3.1989,3.2025,3.1994,3.1995,3.1994,3.1993,3.1997,3.2031,3.2032,3.2033,3.2034,0,3.1668,3.1672,3.1702,3.1735,3.1761,3.1786,3.1811,3.1828,3.1837,3.1862,3.1899,3.1922,3.1966,3.2002,3.2036,3.205,3.2045,3.2043,3.2053,3.2056,3.2054,3.2059,3.1948,3.2041,3.204,3.204,3.2039,3.2039,3.1723,3.175,3.1776,3.181,3.183,3.1854,3.1881,3.1895,3.1926,3.1963,3.1964,3.2005,3.203,3.2075,3.2091,3.2124,3.2113,3.2127,3.2131,3.2135,3.214,3.2047,3.213,3.213,3.213,3.2129,3.2129,0,3.18,3.1817,3.1848,3.1884,3.1912,3.1904,3.1932,3.1956,3.1993,3.2017,3.2046,3.209,3.2126,3.2143,3.2179,3.2202,3.2201,3.2212,3.2211,3.2215,3.2146,3.2135,3.2212,3.2212,3.2212,3.2212,3.2212,3.2212,3.1844,3.1892,3.1899,3.1957,3.1973,3.2014,3.2031,3.2054,3.2073,3.2123,3.2153,3.2165,3.2187,3.2224,3.2257,3.2262,3.2276,3.2289,3.2293,3.2228,3.222,3.2212,3.2202,3.2291,3.2292,3.2359,3.236,3.236]}]]